| time (UTC) | temp C | wind direction | speed KPH | gust KPH | rain 1hr cm | rain 24hr cm | rain mn cm | humidity % | barometer mb |
| 20260509150109 | 16 | 39 | 3.2 | 6.4 | 0.00 | 0.00 | 0.00 | 54 | 909.6 |
| 20260509145609 | 16 | 40 | 3.2 | 8.0 | 0.00 | 0.00 | 0.00 | 54 | 909.6 |
| 20260509145109 | 16 | 33 | 3.2 | 8.0 | 0.00 | 0.00 | 0.00 | 57 | 909.6 |
| 20260509144609 | 16 | 45 | 4.8 | 8.0 | 0.00 | 0.00 | 0.00 | 54 | 909.6 |
| 20260509144109 | 16 | 31 | 4.8 | 9.7 | 0.00 | 0.00 | 0.00 | 55 | 909.6 |
| 20260509143609 | 16 | 29 | 4.8 | 11.3 | 0.00 | 0.00 | 0.00 | 54 | 909.6 |
| 20260509143109 | 16 | 42 | 4.8 | 8.0 | 0.00 | 0.00 | 0.00 | 54 | 909.6 |
| 20260509142609 | 16 | 43 | 4.8 | 8.0 | 0.00 | 0.00 | 0.00 | 54 | 909.6 |
| 20260509142109 | 16 | 39 | 4.8 | 11.3 | 0.00 | 0.00 | 0.00 | 54 | 909.6 |
| 20260509141609 | 16 | 26 | 4.8 | 9.7 | 0.00 | 0.00 | 0.00 | 55 | 909.5 |
| 20260509141109 | 16 | 46 | 6.4 | 12.9 | 0.00 | 0.00 | 0.00 | 54 | 909.5 |
| 20260509140609 | 16 | 42 | 6.4 | 14.5 | 0.00 | 0.00 | 0.00 | 55 | 909.5 |
| 20260509140109 | 16 | 42 | 6.4 | 14.5 | 0.00 | 0.00 | 0.00 | 53 | 909.6 |
| 20260509135609 | 16 | 15 | 6.4 | 9.7 | 0.00 | 0.00 | 0.00 | 54 | 909.5 |
| 20260509135109 | 16 | 41 | 6.4 | 16.1 | 0.00 | 0.00 | 0.00 | 53 | 909.6 |
| 20260509134609 | 16 | 29 | 6.4 | 9.7 | 0.00 | 0.00 | 0.00 | 53 | 909.5 |
| 20260509134109 | 16 | 33 | 6.4 | 14.5 | 0.00 | 0.00 | 0.00 | 53 | 909.4 |
| 20260509133609 | 16 | 37 | 4.8 | 11.3 | 0.00 | 0.00 | 0.00 | 52 | 909.4 |
| 20260509133109 | 16 | 44 | 4.8 | 9.7 | 0.00 | 0.00 | 0.00 | 53 | 909.5 |
| 20260509132609 | 17 | 32 | 6.4 | 9.7 | 0.00 | 0.00 | 0.00 | 53 | 909.5 |
| 20260509132109 | 17 | 40 | 6.4 | 16.1 | 0.00 | 0.00 | 0.00 | 53 | 909.4 |
| 20260509131609 | 17 | 31 | 3.2 | 9.7 | 0.00 | 0.00 | 0.00 | 53 | 909.4 |
| 20260509131112 | 17 | 25 | 1.6 | 8.0 | 0.00 | 0.00 | 0.00 | 60 | 909.3 |
| 20260509130609 | 17 | 36 | 1.6 | 3.2 | 0.00 | 0.00 | 0.00 | 55 | 909.3 |
| 20260509130109 | 17 | 35 | 3.2 | 6.4 | 0.00 | 0.00 | 0.00 | 55 | 909.3 |
| 20260509125609 | 17 | 37 | 3.2 | 9.7 | 0.00 | 0.00 | 0.00 | 54 | 909.2 |
| 20260509125109 | 17 | 38 | 3.2 | 9.7 | 0.00 | 0.00 | 0.00 | 54 | 909.1 |
| 20260509124609 | 17 | 43 | 4.8 | 8.0 | 0.00 | 0.00 | 0.00 | 53 | 909.1 |
| 20260509124109 | 17 | 40 | 6.4 | 12.9 | 0.00 | 0.00 | 0.00 | 54 | 909.1 |
| 20260509123609 | 17 | 37 | 4.8 | 12.9 | 0.00 | 0.00 | 0.00 | 54 | 909.2 |
| 20260509123109 | 17 | 43 | 6.4 | 12.9 | 0.00 | 0.00 | 0.00 | 55 | 909.2 |
| 20260509122609 | 17 | 39 | 9.7 | 16.1 | 0.00 | 0.00 | 0.00 | 53 | 909.3 |
| 20260509122109 | 17 | 45 | 11.3 | 17.7 | 0.00 | 0.00 | 0.00 | 53 | 909.2 |
| 20260509121609 | 17 | 38 | 11.3 | 19.3 | 0.00 | 0.00 | 0.00 | 52 | 909.2 |
| 20260509121109 | 17 | 24 | 9.7 | 20.9 | 0.00 | 0.00 | 0.00 | 53 | 909.2 |
| 20260509120609 | 17 | 16 | 8.0 | 16.1 | 0.00 | 0.00 | 0.00 | 54 | 909.2 |
| 20260509120109 | 17 | 23 | 6.4 | 14.5 | 0.00 | 0.00 | 0.00 | 51 | 909.2 |
| 20260509115610 | 17 | 9 | 6.4 | 12.9 | 0.00 | 0.00 | 0.00 | 51 | 909.2 |
| 20260509115110 | 17 | 35 | 6.4 | 16.1 | 0.00 | 0.00 | 0.00 | 52 | 909.1 |
| 20260509114610 | 17 | 31 | 6.4 | 16.1 | 0.00 | 0.00 | 0.00 | 54 | 909.1 |
| 20260509114110 | 17 | 33 | 6.4 | 14.5 | 0.00 | 0.00 | 0.00 | 50 | 909.1 |
| 20260509113610 | 18 | 50 | 6.4 | 12.9 | 0.00 | 0.00 | 0.00 | 50 | 909.1 |
| 20260509113110 | 18 | 30 | 6.4 | 14.5 | 0.00 | 0.00 | 0.00 | 51 | 909.0 |
| 20260509112610 | 18 | 29 | 8.0 | 17.7 | 0.00 | 0.00 | 0.00 | 51 | 909.0 |
| 20260509112110 | 18 | 10 | 9.7 | 19.3 | 0.00 | 0.00 | 0.00 | 50 | 908.9 |
| 20260509111610 | 18 | 12 | 8.0 | 17.7 | 0.00 | 0.00 | 0.00 | 49 | 908.8 |
| 20260509111110 | 18 | 31 | 9.7 | 16.1 | 0.00 | 0.00 | 0.00 | 48 | 908.9 |
| 20260509110610 | 18 | 27 | 8.0 | 22.5 | 0.00 | 0.00 | 0.00 | 47 | 908.8 |
| 20260509110110 | 18 | 39 | 6.4 | 9.7 | 0.00 | 0.00 | 0.00 | 48 | 908.7 |
| 20260509105610 | 18 | 24 | 6.4 | 17.7 | 0.00 | 0.00 | 0.00 | 47 | 908.7 |
| 20260509105110 | 18 | 15 | 8.0 | 14.5 | 0.00 | 0.00 | 0.00 | 47 | 908.5 |
| 20260509104610 | 18 | 51 | 9.7 | 17.7 | 0.00 | 0.00 | 0.00 | 48 | 908.5 |
| 20260509104110 | 18 | 24 | 12.9 | 20.9 | 0.00 | 0.00 | 0.00 | 47 | 908.3 |
| 20260509103610 | 18 | 16 | 11.3 | 20.9 | 0.00 | 0.00 | 0.00 | 46 | 908.2 |
| 20260509103110 | 18 | 41 | 9.7 | 19.3 | 0.00 | 0.00 | 0.00 | 46 | 908.2 |
| 20260509102610 | 19 | 43 | 9.7 | 22.5 | 0.00 | 0.00 | 0.00 | 52 | 908.1 |
| 20260509102110 | 19 | 26 | 9.7 | 16.1 | 0.00 | 0.00 | 0.00 | 45 | 907.6 |
| 20260509101610 | 19 | 34 | 8.0 | 17.7 | 0.00 | 0.00 | 0.00 | 44 | 907.6 |
| 20260509101110 | 19 | 20 | 9.7 | 16.1 | 0.00 | 0.00 | 0.00 | 45 | 907.5 |
| 20260509100610 | 19 | 27 | 9.7 | 24.1 | 0.00 | 0.00 | 0.00 | 44 | 907.5 |
| 20260509100110 | 19 | 29 | 9.7 | 19.3 | 0.00 | 0.00 | 0.00 | 44 | 907.5 |
| 20260509095610 | 19 | 15 | 12.9 | 17.7 | 0.00 | 0.00 | 0.00 | 44 | 907.4 |
| 20260509095110 | 19 | 23 | 12.9 | 22.5 | 0.00 | 0.00 | 0.00 | 43 | 907.2 |
| 20260509094610 | 20 | 26 | 12.9 | 27.4 | 0.00 | 0.00 | 0.00 | 43 | 907.2 |
| 20260509094110 | 20 | 27 | 12.9 | 24.1 | 0.00 | 0.00 | 0.00 | 42 | 907.1 |
| 20260509093610 | 20 | 37 | 11.3 | 22.5 | 0.00 | 0.00 | 0.00 | 42 | 906.9 |
| 20260509093110 | 20 | 23 | 11.3 | 24.1 | 0.00 | 0.00 | 0.00 | 42 | 906.9 |
| 20260509092610 | 20 | 20 | 11.3 | 24.1 | 0.00 | 0.00 | 0.00 | 43 | 906.7 |
| 20260509092110 | 20 | 36 | 12.9 | 20.9 | 0.00 | 0.00 | 0.00 | 42 | 906.7 |
| 20260509091610 | 20 | 41 | 12.9 | 29.0 | 0.00 | 0.00 | 0.00 | 42 | 906.6 |
| 20260509091110 | 20 | 280 | 12.9 | 20.9 | 0.00 | 0.00 | 0.00 | 42 | 906.6 |
| 20260509090610 | 20 | 40 | 16.1 | 35.4 | 0.00 | 0.00 | 0.00 | 42 | 906.6 |
| 20260509090110 | 20 | 345 | 12.9 | 35.4 | 0.00 | 0.00 | 0.00 | 41 | 906.6 |
| 20260509085610 | 21 | 349 | 11.3 | 24.1 | 0.00 | 0.00 | 0.00 | 40 | 906.7 |
| 20260509085110 | 21 | 29 | 9.7 | 29.0 | 0.00 | 0.00 | 0.00 | 43 | 906.6 |
| 20260509084610 | 21 | 42 | 8.0 | 22.5 | 0.00 | 0.00 | 0.00 | 40 | 906.4 |
| 20260509084110 | 21 | 359 | 11.3 | 22.5 | 0.00 | 0.00 | 0.00 | 40 | 906.5 |
| 20260509083610 | 21 | 40 | 14.5 | 29.0 | 0.00 | 0.00 | 0.00 | 37 | 906.4 |
| 20260509083110 | 21 | 27 | 14.5 | 29.0 | 0.00 | 0.00 | 0.00 | 31 | 906.5 |
| 20260509082610 | 21 | 37 | 16.1 | 30.6 | 0.00 | 0.00 | 0.00 | 37 | 906.3 |
| 20260509082110 | 21 | 33 | 17.7 | 32.2 | 0.00 | 0.00 | 0.00 | 30 | 906.3 |
| 20260509081610 | 22 | 43 | 14.5 | 30.6 | 0.00 | 0.00 | 0.00 | 31 | 906.2 |
| 20260509081110 | 22 | 33 | 14.5 | 24.1 | 0.00 | 0.00 | 0.00 | 30 | 906.2 |
| 20260509080610 | 22 | 26 | 14.5 | 27.4 | 0.00 | 0.00 | 0.00 | 30 | 906.2 |
| 20260509080110 | 22 | 40 | 11.3 | 27.4 | 0.00 | 0.00 | 0.00 | 30 | 906.4 |
| 20260509075610 | 22 | 4 | 11.3 | 20.9 | 0.00 | 0.00 | 0.00 | 31 | 906.2 |
| 20260509075110 | 22 | 339 | 12.9 | 22.5 | 0.00 | 0.00 | 0.00 | 31 | 906.1 |
| 20260509074610 | 22 | 20 | 14.5 | 27.4 | 0.00 | 0.00 | 0.00 | 31 | 906.1 |
| 20260509074110 | 22 | 31 | 14.5 | 24.1 | 0.00 | 0.00 | 0.00 | 30 | 906.2 |
| 20260509073610 | 22 | 28 | 14.5 | 27.4 | 0.00 | 0.00 | 0.00 | 31 | 906.2 |
| 20260509073110 | 22 | 26 | 14.5 | 24.1 | 0.00 | 0.00 | 0.00 | 31 | 906.1 |
| 20260509072610 | 22 | 26 | 14.5 | 32.2 | 0.00 | 0.00 | 0.00 | 31 | 906.2 |
| 20260509072110 | 22 | 23 | 9.7 | 20.9 | 0.00 | 0.00 | 0.00 | 29 | 906.1 |
| 20260509071610 | 22 | 20 | 8.0 | 19.3 | 0.00 | 0.00 | 0.00 | 35 | 906.2 |
| 20260509071110 | 22 | 32 | 12.9 | 25.7 | 0.00 | 0.00 | 0.00 | 28 | 906.2 |
| 20260509070610 | 22 | 43 | 14.5 | 30.6 | 0.00 | 0.00 | 0.00 | 33 | 906.2 |
| 20260509070110 | 22 | 33 | 14.5 | 25.7 | 0.00 | 0.00 | 0.00 | 29 | 906.1 |
| 20260509065610 | 22 | 42 | 14.5 | 27.4 | 0.00 | 0.00 | 0.00 | 29 | 906.2 |
| 20260509065110 | 22 | 44 | 16.1 | 25.7 | 0.00 | 0.00 | 0.00 | 29 | 905.9 |
| 20260509064610 | 22 | 37 | 14.5 | 30.6 | 0.00 | 0.00 | 0.00 | 32 | 905.9 |
| 20260509064110 | 22 | 38 | 14.5 | 25.7 | 0.00 | 0.00 | 0.00 | 27 | 905.9 |
| 20260509063610 | 22 | 40 | 16.1 | 25.7 | 0.00 | 0.00 | 0.00 | 29 | 905.8 |
| 20260509063110 | 22 | 51 | 17.7 | 32.2 | 0.00 | 0.00 | 0.00 | 29 | 905.8 |
| 20260509062610 | 22 | 349 | 12.9 | 30.6 | 0.00 | 0.00 | 0.00 | 28 | 905.7 |
| 20260509062110 | 22 | 25 | 12.9 | 27.4 | 0.00 | 0.00 | 0.00 | 28 | 905.8 |
| 20260509061610 | 22 | 43 | 17.7 | 35.4 | 0.00 | 0.00 | 0.00 | 29 | 905.7 |
| 20260509061110 | 22 | 35 | 14.5 | 35.4 | 0.00 | 0.00 | 0.00 | 28 | 905.7 |
| 20260509060610 | 22 | 39 | 12.9 | 29.0 | 0.00 | 0.00 | 0.00 | 29 | 905.4 |
| 20260509060110 | 22 | 40 | 16.1 | 25.7 | 0.00 | 0.00 | 0.00 | 29 | 905.5 |
| 20260509055610 | 22 | 29 | 16.1 | 25.7 | 0.00 | 0.00 | 0.00 | 29 | 905.5 |
| 20260509055110 | 22 | 25 | 16.1 | 29.0 | 0.00 | 0.00 | 0.00 | 30 | 905.8 |
| 20260509054610 | 22 | 18 | 16.1 | 32.2 | 0.00 | 0.00 | 0.00 | 29 | 905.1 |
| 20260509054110 | 22 | 39 | 14.5 | 30.6 | 0.00 | 0.00 | 0.00 | 30 | 905.0 |
| 20260509053610 | 22 | 23 | 17.7 | 30.6 | 0.00 | 0.00 | 0.00 | 30 | 905.5 |
| 20260509053110 | 22 | 4 | 17.7 | 35.4 | 0.00 | 0.00 | 0.00 | 30 | 905.4 |
| 20260509052610 | 22 | 33 | 16.1 | 27.4 | 0.00 | 0.00 | 0.00 | 33 | 905.6 |
| 20260509052110 | 22 | 17 | 17.7 | 27.4 | 0.00 | 0.00 | 0.00 | 32 | 905.4 |
| 20260509051610 | 22 | 22 | 17.7 | 30.6 | 0.00 | 0.00 | 0.00 | 31 | 905.5 |
| 20260509051110 | 22 | 38 | 16.1 | 29.0 | 0.00 | 0.00 | 0.00 | 28 | 905.3 |
| 20260509050610 | 22 | 16 | 16.1 | 29.0 | 0.00 | 0.00 | 0.00 | 30 | 905.5 |
| 20260509050110 | 22 | 13 | 17.7 | 35.4 | 0.00 | 0.00 | 0.00 | 33 | 905.8 |
| 20260509045610 | 22 | 32 | 17.7 | 32.2 | 0.00 | 0.00 | 0.00 | 30 | 905.5 |
| 20260509045111 | 22 | 32 | 17.7 | 32.2 | 0.00 | 0.00 | 0.00 | 33 | 905.9 |
| 20260509044610 | 21 | 41 | 17.7 | 35.4 | 0.00 | 0.00 | 0.00 | 32 | 905.6 |
| 20260509044110 | 22 | 25 | 16.1 | 33.8 | 0.00 | 0.00 | 0.00 | 31 | 905.8 |
| 20260509043610 | 22 | 354 | 16.1 | 33.8 | 0.00 | 0.00 | 0.00 | 32 | 905.8 |
| 20260509043111 | 22 | 34 | 17.7 | 32.2 | 0.00 | 0.00 | 0.00 | 31 | 906.1 |
| 20260509042611 | 22 | 45 | 14.5 | 29.0 | 0.00 | 0.00 | 0.00 | 34 | 906.2 |
| 20260509042110 | 22 | 31 | 12.9 | 32.2 | 0.00 | 0.00 | 0.00 | 32 | 905.9 |
| 20260509041611 | 22 | 35 | 16.1 | 29.0 | 0.00 | 0.00 | 0.00 | 32 | 906.3 |
| 20260509041111 | 22 | 36 | 16.1 | 27.4 | 0.00 | 0.00 | 0.00 | 32 | 906.1 |
| 20260509040611 | 21 | 359 | 14.5 | 25.7 | 0.00 | 0.00 | 0.00 | 32 | 905.8 |
| 20260509040111 | 21 | 35 | 14.5 | 24.1 | 0.00 | 0.00 | 0.00 | 32 | 905.9 |
| 20260509035611 | 21 | 37 | 16.1 | 24.1 | 0.00 | 0.00 | 0.00 | 35 | 906.2 |
| 20260509035111 | 21 | 27 | 14.5 | 30.6 | 0.00 | 0.00 | 0.00 | 35 | 906.1 |
| 20260509034611 | 21 | 31 | 11.3 | 27.4 | 0.00 | 0.00 | 0.00 | 34 | 906.2 |
| 20260509034111 | 21 | 42 | 12.9 | 24.1 | 0.00 | 0.00 | 0.00 | 35 | 906.4 |
| 20260509033611 | 21 | 35 | 16.1 | 24.1 | 0.00 | 0.00 | 0.00 | 35 | 906.3 |
| 20260509033111 | 21 | 14 | 19.3 | 30.6 | 0.00 | 0.00 | 0.00 | 38 | 906.4 |
| 20260509032611 | 21 | 38 | 17.7 | 35.4 | 0.00 | 0.00 | 0.00 | 35 | 906.4 |
| 20260509032111 | 21 | 16 | 12.9 | 32.2 | 0.00 | 0.00 | 0.00 | 36 | 906.4 |
| 20260509031611 | 21 | 39 | 14.5 | 22.5 | 0.00 | 0.00 | 0.00 | 37 | 906.5 |
| 20260509031111 | 20 | 359 | 14.5 | 35.4 | 0.00 | 0.00 | 0.00 | 38 | 906.6 |
| 20260509030611 | 20 | 359 | 16.1 | 22.5 | 0.00 | 0.00 | 0.00 | 40 | 906.6 |
| 20260509030111 | 20 | 29 | 14.5 | 41.8 | 0.00 | 0.00 | 0.00 | 38 | 906.5 |
| 20260509025611 | 20 | 10 | 14.5 | 20.9 | 0.00 | 0.00 | 0.00 | 39 | 906.4 |
| 20260509025111 | 20 | 14 | 17.7 | 37.0 | 0.00 | 0.00 | 0.00 | 40 | 906.5 |
| 20260509024611 | 20 | 193 | 14.5 | 33.8 | 0.00 | 0.00 | 0.00 | 38 | 906.5 |
| 20260509024111 | 20 | 349 | 14.5 | 25.7 | 0.00 | 0.00 | 0.00 | 38 | 906.5 |
| 20260509023611 | 20 | 33 | 16.1 | 29.0 | 0.00 | 0.00 | 0.00 | 39 | 906.3 |
| 20260509023111 | 20 | 36 | 17.7 | 33.8 | 0.00 | 0.00 | 0.00 | 39 | 906.4 |
| 20260509022611 | 20 | 35 | 14.5 | 30.6 | 0.00 | 0.00 | 0.00 | 40 | 906.6 |
| 20260509022111 | 20 | 25 | 11.3 | 29.0 | 0.00 | 0.00 | 0.00 | 41 | 906.5 |
| 20260509021611 | 19 | 354 | 14.5 | 24.1 | 0.00 | 0.00 | 0.00 | 40 | 906.7 |
| 20260509021111 | 19 | 4 | 16.1 | 33.8 | 0.00 | 0.00 | 0.00 | 48 | 906.8 |
| 20260509020611 | 19 | 12 | 14.5 | 24.1 | 0.00 | 0.00 | 0.00 | 41 | 906.7 |
| 20260509020111 | 19 | 45 | 16.1 | 27.4 | 0.00 | 0.00 | 0.00 | 41 | 906.7 |
| 20260509015611 | 18 | 39 | 16.1 | 30.6 | 0.00 | 0.00 | 0.00 | 46 | 906.8 |
| 20260509015111 | 18 | 39 | 19.3 | 25.7 | 0.00 | 0.00 | 0.00 | 43 | 906.5 |
| 20260509014611 | 18 | 31 | 20.9 | 45.1 | 0.00 | 0.00 | 0.00 | 42 | 906.9 |
| 20260509014111 | 18 | 39 | 17.7 | 37.0 | 0.00 | 0.00 | 0.00 | 44 | 906.6 |
| 20260509013611 | 18 | 23 | 16.1 | 37.0 | 0.00 | 0.00 | 0.00 | 45 | 907.0 |
| 20260509013111 | 18 | 35 | 19.3 | 33.8 | 0.00 | 0.00 | 0.00 | 47 | 906.7 |
| 20260509012611 | 18 | 36 | 17.7 | 33.8 | 0.00 | 0.00 | 0.00 | 43 | 906.8 |
| 20260509012111 | 18 | 16 | 12.9 | 25.7 | 0.00 | 0.00 | 0.00 | 43 | 906.4 |
| 20260509011611 | 18 | 46 | 16.1 | 24.1 | 0.00 | 0.00 | 0.00 | 45 | 906.9 |
| 20260509011111 | 18 | 26 | 14.5 | 40.2 | 0.00 | 0.00 | 0.00 | 46 | 906.9 |
| 20260509010611 | 18 | 28 | 14.5 | 27.4 | 0.00 | 0.00 | 0.00 | 45 | 906.9 |
| 20260509010111 | 18 | 26 | 16.1 | 27.4 | 0.00 | 0.00 | 0.00 | 45 | 906.9 |
| 20260509005611 | 18 | 30 | 14.5 | 38.6 | 0.00 | 0.00 | 0.00 | 51 | 907.0 |
| 20260509005111 | 17 | 359 | 14.5 | 24.1 | 0.00 | 0.00 | 0.00 | 49 | 907.1 |
| 20260509004611 | 17 | 30 | 16.1 | 32.2 | 0.00 | 0.00 | 0.00 | 47 | 907.2 |
| 20260509004111 | 17 | 359 | 16.1 | 37.0 | 0.00 | 0.00 | 0.00 | 49 | 906.9 |
| 20260509003611 | 17 | 18 | 17.7 | 27.4 | 0.00 | 0.00 | 0.00 | 49 | 906.7 |
| 20260509003111 | 17 | 35 | 20.9 | 38.6 | 0.00 | 0.00 | 0.00 | 47 | 906.8 |
| 20260509002611 | 17 | 38 | 20.9 | 35.4 | 0.00 | 0.00 | 0.00 | 50 | 906.6 |
| 20260509002111 | 17 | 35 | 16.1 | 30.6 | 0.00 | 0.00 | 0.00 | 50 | 906.7 |
| 20260509001611 | 17 | 35 | 19.3 | 27.4 | 0.00 | 0.00 | 0.00 | 52 | 906.6 |
| 20260509001111 | 16 | 27 | 20.9 | 43.5 | 0.00 | 0.00 | 0.00 | 54 | 906.8 |
| 20260509000611 | 17 | 32 | 17.7 | 33.8 | 0.00 | 0.00 | 0.00 | 49 | 906.6 |
| 20260509000111 | 17 | 4 | 16.1 | 32.2 | 0.00 | 0.00 | 0.00 | 48 | 906.5 |
| 20260508235611 | 16 | 25 | 16.1 | 25.7 | 0.00 | 0.00 | 0.00 | 52 | 906.5 |
| 20260508235111 | 16 | 31 | 12.9 | 25.7 | 0.00 | 0.00 | 0.00 | 50 | 906.5 |
| 20260508234611 | 16 | 20 | 12.9 | 20.9 | 0.00 | 0.00 | 0.00 | 54 | 906.5 |
| 20260508234111 | 16 | 37 | 14.5 | 22.5 | 0.00 | 0.00 | 0.00 | 53 | 906.6 |
| 20260508233611 | 16 | 33 | 16.1 | 35.4 | 0.00 | 0.00 | 0.00 | 52 | 906.6 |
| 20260508233111 | 16 | 13 | 17.7 | 24.1 | 0.00 | 0.00 | 0.00 | 53 | 906.5 |
| 20260508232611 | 16 | 4 | 17.7 | 35.4 | 0.00 | 0.00 | 0.00 | 50 | 906.2 |
| 20260508232111 | 16 | 4 | 16.1 | 32.2 | 0.00 | 0.00 | 0.00 | 51 | 906.2 |
| 20260508231611 | 16 | 35 | 16.1 | 33.8 | 0.00 | 0.00 | 0.00 | 55 | 906.3 |
| 20260508231111 | 16 | 37 | 16.1 | 33.8 | 0.00 | 0.00 | 0.00 | 52 | 906.2 |
| 20260508230611 | 16 | 31 | 17.7 | 35.4 | 0.00 | 0.00 | 0.00 | 53 | 906.3 |
| 20260508230111 | 16 | 31 | 17.7 | 37.0 | 0.00 | 0.00 | 0.00 | 52 | 906.1 |
| 20260508225611 | 16 | 20 | 17.7 | 33.8 | 0.00 | 0.00 | 0.00 | 52 | 905.9 |
| 20260508225111 | 16 | 36 | 17.7 | 30.6 | 0.00 | 0.00 | 0.00 | 55 | 906.1 |
| 20260508224611 | 16 | 29 | 17.7 | 40.2 | 0.00 | 0.00 | 0.00 | 53 | 905.9 |
| 20260508224111 | 16 | 26 | 16.1 | 29.0 | 0.00 | 0.00 | 0.00 | 54 | 905.9 |
| 20260508223611 | 15 | 35 | 14.5 | 30.6 | 0.00 | 0.00 | 0.00 | 55 | 905.9 |
| 20260508223111 | 15 | 31 | 16.1 | 29.0 | 0.00 | 0.00 | 0.00 | 58 | 905.8 |
| 20260508222611 | 15 | 43 | 16.1 | 29.0 | 0.00 | 0.00 | 0.00 | 55 | 905.7 |
| 20260508222111 | 15 | 43 | 14.5 | 30.6 | 0.00 | 0.00 | 0.00 | 56 | 905.7 |
| 20260508221611 | 15 | 35 | 14.5 | 24.1 | 0.00 | 0.00 | 0.00 | 58 | 905.8 |
| 20260508221111 | 15 | 23 | 17.7 | 33.8 | 0.00 | 0.00 | 0.00 | 57 | 905.7 |
| 20260508220611 | 15 | 35 | 19.3 | 35.4 | 0.00 | 0.00 | 0.00 | 60 | 905.6 |
| 20260508220111 | 15 | 34 | 17.7 | 32.2 | 0.00 | 0.00 | 0.00 | 56 | 905.5 |
| 20260508215611 | 15 | 18 | 14.5 | 27.4 | 0.00 | 0.00 | 0.00 | 59 | 905.5 |
| 20260508215111 | 15 | 25 | 14.5 | 30.6 | 0.00 | 0.00 | 0.00 | 60 | 905.5 |
| 20260508214611 | 15 | 39 | 12.9 | 25.7 | 0.00 | 0.00 | 0.00 | 65 | 905.4 |
| 20260508214111 | 15 | 31 | 11.3 | 33.8 | 0.00 | 0.00 | 0.00 | 61 | 905.3 |
| 20260508213611 | 14 | 21 | 8.0 | 24.1 | 0.00 | 0.00 | 0.00 | 63 | 905.3 |
| 20260508213111 | 14 | 359 | 8.0 | 22.5 | 0.00 | 0.00 | 0.00 | 63 | 905.1 |
| 20260508212611 | 14 | 37 | 9.7 | 20.9 | 0.00 | 0.00 | 0.00 | 65 | 905.3 |
| 20260508212112 | 14 | 43 | 9.7 | 24.1 | 0.00 | 0.00 | 0.00 | 63 | 905.0 |
| 20260508211612 | 14 | 23 | 9.7 | 17.7 | 0.00 | 0.00 | 0.00 | 65 | 904.9 |
| 20260508211111 | 14 | 15 | 11.3 | 17.7 | 0.00 | 0.00 | 0.00 | 64 | 904.9 |
| 20260508210612 | 13 | 43 | 11.3 | 19.3 | 0.00 | 0.00 | 0.00 | 64 | 905.0 |
| 20260508210112 | 14 | 38 | 9.7 | 20.9 | 0.00 | 0.00 | 0.00 | 65 | 904.9 |
| 20260508205612 | 14 | 25 | 9.7 | 20.9 | 0.00 | 0.00 | 0.00 | 65 | 904.9 |
| 20260508205112 | 14 | 37 | 8.0 | 20.9 | 0.00 | 0.00 | 0.00 | 66 | 904.9 |
| 20260508204612 | 14 | 29 | 8.0 | 14.5 | 0.00 | 0.00 | 0.00 | 65 | 904.8 |
| 20260508204112 | 14 | 45 | 9.7 | 14.5 | 0.00 | 0.00 | 0.00 | 64 | 904.9 |
| 20260508203612 | 14 | 29 | 9.7 | 17.7 | 0.00 | 0.00 | 0.00 | 63 | 904.5 |
| 20260508203112 | 14 | 354 | 11.3 | 22.5 | 0.00 | 0.00 | 0.00 | 63 | 904.6 |
| 20260508202612 | 14 | 43 | 9.7 | 20.9 | 0.00 | 0.00 | 0.00 | 64 | 904.7 |
| 20260508202112 | 14 | 32 | 8.0 | 22.5 | 0.00 | 0.00 | 0.00 | 65 | 904.7 |
| 20260508201612 | 14 | 25 | 6.4 | 17.7 | 0.00 | 0.00 | 0.00 | 65 | 904.7 |
| 20260508201112 | 14 | 16 | 6.4 | 17.7 | 0.00 | 0.00 | 0.00 | 65 | 904.8 |
| 20260508200612 | 14 | 38 | 4.8 | 17.7 | 0.00 | 0.00 | 0.00 | 63 | 904.8 |
| 20260508200112 | 14 | 37 | 4.8 | 9.7 | 0.00 | 0.03 | 0.00 | 66 | 904.6 |
| 20260508195612 | 14 | 40 | 6.4 | 14.5 | 0.00 | 0.03 | 0.00 | 68 | 904.6 |
| 20260508195112 | 14 | 27 | 8.0 | 12.9 | 0.00 | 0.03 | 0.00 | 62 | 904.0 |
| 20260508194612 | 14 | 12 | 8.0 | 17.7 | 0.00 | 0.03 | 0.00 | 62 | 904.4 |
| 20260508194112 | 14 | 25 | 9.7 | 17.7 | 0.00 | 0.03 | 0.00 | 61 | 904.2 |
| 20260508193612 | 14 | 43 | 8.0 | 19.3 | 0.00 | 0.03 | 0.00 | 62 | 904.1 |
| 20260508193112 | 15 | 41 | 4.8 | 11.3 | 0.00 | 0.03 | 0.00 | 61 | 904.1 |
| 20260508192612 | 14 | 26 | 6.4 | 16.1 | 0.00 | 0.03 | 0.00 | 63 | 904.0 |
| 20260508192112 | 15 | 23 | 8.0 | 20.9 | 0.00 | 0.03 | 0.00 | 61 | 904.1 |
| 20260508191612 | 15 | 39 | 9.7 | 19.3 | 0.00 | 0.03 | 0.00 | 62 | 904.0 |
| 20260508191112 | 15 | 4 | 11.3 | 19.3 | 0.00 | 0.03 | 0.00 | 61 | 904.1 |
| 20260508190612 | 15 | 39 | 11.3 | 24.1 | 0.00 | 0.03 | 0.00 | 63 | 903.9 |
| 20260508190112 | 15 | 27 | 12.9 | 19.3 | 0.00 | 0.03 | 0.00 | 61 | 903.9 |
| 20260508185612 | 15 | 35 | 14.5 | 27.4 | 0.00 | 0.03 | 0.00 | 61 | 904.1 |
| 20260508185112 | 15 | 26 | 12.9 | 29.0 | 0.00 | 0.03 | 0.00 | 61 | 904.1 |
| 20260508184612 | 15 | 22 | 11.3 | 24.1 | 0.00 | 0.03 | 0.00 | 62 | 903.8 |
| 20260508184112 | 15 | 341 | 9.7 | 24.1 | 0.00 | 0.03 | 0.00 | 64 | 903.7 |
| 20260508183612 | 15 | 19 | 11.3 | 14.5 | 0.00 | 0.03 | 0.00 | 64 | 903.6 |
| 20260508183112 | 15 | 36 | 12.9 | 25.7 | 0.00 | 0.03 | 0.00 | 62 | 903.7 |
| 20260508182612 | 15 | 13 | 12.9 | 27.4 | 0.00 | 0.03 | 0.00 | 63 | 903.6 |
| 20260508182112 | 15 | 343 | 9.7 | 24.1 | 0.00 | 0.03 | 0.00 | 63 | 903.6 |
| 20260508181612 | 15 | 29 | 8.0 | 17.7 | 0.00 | 0.03 | 0.00 | 65 | 903.6 |
| 20260508181112 | 15 | 35 | 6.4 | 17.7 | 0.00 | 0.03 | 0.00 | 64 | 903.8 |
| 20260508180612 | 15 | 34 | 4.8 | 14.5 | 0.00 | 0.03 | 0.00 | 66 | 903.8 |
| 20260508180112 | 15 | 39 | 9.7 | 19.3 | 0.00 | 0.03 | 0.00 | 64 | 903.7 |
| 20260508175612 | 15 | 27 | 12.9 | 30.6 | 0.00 | 0.03 | 0.00 | 65 | 903.6 |
| 20260508175112 | 15 | 31 | 12.9 | 27.4 | 0.00 | 0.03 | 0.00 | 62 | 903.8 |
| 20260508174612 | 15 | 35 | 12.9 | 20.9 | 0.00 | 0.03 | 0.00 | 65 | 903.6 |
| 20260508174112 | 15 | 41 | 11.3 | 27.4 | 0.00 | 0.03 | 0.00 | 60 | 903.6 |
| 20260508173612 | 16 | 24 | 8.0 | 16.1 | 0.00 | 0.03 | 0.00 | 60 | 903.6 |
| 20260508173112 | 16 | 24 | 9.7 | 19.3 | 0.00 | 0.03 | 0.00 | 59 | 903.4 |
| 20260508172612 | 16 | 39 | 9.7 | 20.9 | 0.00 | 0.03 | 0.00 | 59 | 903.4 |
| 20260508172112 | 16 | 14 | 8.0 | 24.1 | 0.00 | 0.03 | 0.00 | 57 | 903.3 |
| 20260508171612 | 16 | 19 | 4.8 | 19.3 | 0.00 | 0.03 | 0.00 | 58 | 903.3 |
| 20260508171112 | 16 | 31 | 4.8 | 12.9 | 0.00 | 0.03 | 0.00 | 61 | 903.3 |
| 20260508170612 | 16 | 37 | 6.4 | 17.7 | 0.00 | 0.03 | 0.00 | 55 | 903.1 |
| 20260508170112 | 16 | 34 | 4.8 | 14.5 | 0.00 | 0.03 | 0.00 | 55 | 903.2 |
| 20260508165612 | 16 | 347 | 1.6 | 11.3 | 0.00 | 0.03 | 0.00 | 52 | 903.6 |
| 20260508165112 | 16 | 43 | 0.0 | 4.8 | 0.00 | 0.03 | 0.03 | 49 | 903.4 |
| 20260508164612 | 16 | 43 | 0.0 | 1.6 | 0.00 | 0.03 | 0.03 | 49 | 903.6 |
| 20260508164112 | 16 | 44 | 0.0 | 1.6 | 0.00 | 0.03 | 0.03 | 50 | 903.3 |
| 20260508163612 | 16 | 43 | 0.0 | 1.6 | 0.00 | 0.03 | 0.03 | 49 | 903.4 |
| 20260508163112 | 16 | 43 | 0.0 | 3.2 | 0.00 | 0.03 | 0.03 | 49 | 903.3 |
| 20260508162612 | 16 | 43 | 0.0 | 3.2 | 0.00 | 0.03 | 0.03 | 48 | 903.4 |
| 20260508162112 | 16 | 42 | 1.6 | 3.2 | 0.00 | 0.03 | 0.03 | 48 | 903.4 |
| 20260508161612 | 16 | 43 | 1.6 | 3.2 | 0.00 | 0.03 | 0.03 | 48 | 903.3 |
| 20260508161112 | 16 | 41 | 1.6 | 6.4 | 0.00 | 0.03 | 0.03 | 47 | 903.5 |
| 20260508160612 | 16 | 43 | 1.6 | 4.8 | 0.00 | 0.03 | 0.03 | 49 | 903.2 |
| 20260508160112 | 16 | 43 | 3.2 | 6.4 | 0.00 | 0.03 | 0.03 | 49 | 903.3 |
| 20260508155612 | 16 | 37 | 1.6 | 9.7 | 0.00 | 0.03 | 0.03 | 48 | 903.4 |
| 20260508155112 | 16 | 42 | 1.6 | 4.8 | 0.00 | 0.03 | 0.03 | 50 | 903.5 |
| 20260508154612 | 16 | 40 | 1.6 | 8.0 | 0.00 | 0.03 | 0.03 | 53 | 903.5 |
| 20260508154112 | 16 | 38 | 1.6 | 8.0 | 0.00 | 0.03 | 0.03 | 45 | 903.5 |
| 20260508153612 | 16 | 37 | 1.6 | 3.2 | 0.00 | 0.03 | 0.03 | 52 | 903.5 |
| 20260508153112 | 16 | 35 | 1.6 | 4.8 | 0.00 | 0.03 | 0.03 | 53 | 903.5 |
| 20260508152612 | 16 | 35 | 1.6 | 6.4 | 0.00 | 0.03 | 0.03 | 48 | 903.4 |
| 20260508152112 | 16 | 40 | 1.6 | 4.8 | 0.00 | 0.03 | 0.03 | 44 | 903.5 |
| 20260508151612 | 16 | 39 | 3.2 | 6.4 | 0.00 | 0.03 | 0.03 | 49 | 903.4 |
| 20260508151112 | 16 | 39 | 3.2 | 8.0 | 0.00 | 0.03 | 0.03 | 52 | 903.3 |
| 20260508150612 | 16 | 39 | 3.2 | 6.4 | 0.00 | 0.03 | 0.03 | 48 | 903.4 |